Hourly Weather Bolshie Knyazikovcy

Today, 20 June, Sunday

Time Temperature Precipitation Wind Pressure Humidity
00:00 +19°C° 0 mm 2 mps 751 mmHg 88%
01:00 +19°C° 0 mm 2 mps 751 mmHg 89%
02:00 +19°C° 0 mm 2 mps 751 mmHg 88%
03:00 +19°C° 0 mm 2 mps 751 mmHg 89%
04:00 +19°C° 0 mm 2 mps 751 mmHg 90%
05:00 +19°C° 0 mm 2 mps 751 mmHg 90%
06:00 +21°C° 0 mm 3 mps 751 mmHg 86%
07:00 +22°C° 0 mm 3 mps 751 mmHg 81%
08:00 +25°C° 0 mm 3 mps 751 mmHg 77%
09:00 +26°C° 0 mm 4 mps 751 mmHg 72%
10:00 +28°C° 0 mm 4 mps 751 mmHg 67%
11:00 +29°C° 0 mm 5 mps 751 mmHg 63%
12:00 +29°C° 0 mm 4 mps 750 mmHg 61%
13:00 +30°C° 0 mm 4 mps 750 mmHg 59%
14:00 +30°C° 0 mm 4 mps 750 mmHg 57%
15:00 +30°C° 0.4 mm 4 mps 750 mmHg 61%
16:00 +29°C° 0.4 mm 4 mps 749 mmHg 65%
17:00 +29°C° 0.4 mm 4 mps 749 mmHg 69%
18:00 +28°C° 0.4 mm 3 mps 749 mmHg 74%
19:00 +26°C° 0.4 mm 3 mps 749 mmHg 79%
20:00 +25°C° 0.4 mm 2 mps 749 mmHg 85%
21:00 +24°C° 0 mm 3 mps 749 mmHg 87%
22:00 +22°C° 0 mm 3 mps 749 mmHg 89%
23:00 +21°C° 0 mm 3 mps 749 mmHg 92%

Tomorrow, 21 June, Monday

Time Temperature Precipitation Wind Pressure Humidity
00:00 +20°C° 0 mm 3 mps 749 mmHg 93%
01:00 +20°C° 0 mm 3 mps 749 mmHg 93%
02:00 +19°C° 0 mm 2 mps 749 mmHg 94%
03:00 +19°C° 0 mm 3 mps 749 mmHg 95%
04:00 +19°C° 0 mm 3 mps 749 mmHg 95%
05:00 +19°C° 0 mm 3 mps 748 mmHg 95%
06:00 +20°C° 0 mm 3 mps 748 mmHg 89%
07:00 +22°C° 0 mm 3 mps 748 mmHg 83%
08:00 +23°C° 0 mm 4 mps 748 mmHg 77%
09:00 +26°C° 0 mm 4 mps 748 mmHg 71%
10:00 +27°C° 0 mm 4 mps 748 mmHg 65%
11:00 +28°C° 0 mm 4 mps 748 mmHg 60%
12:00 +29°C° 0 mm 5 mps 748 mmHg 58%
13:00 +29°C° 0 mm 5 mps 748 mmHg 57%
14:00 +30°C° 0 mm 5 mps 747 mmHg 56%
15:00 +29°C° 0 mm 5 mps 747 mmHg 59%
16:00 +29°C° 0 mm 4 mps 747 mmHg 62%
17:00 +29°C° 0 mm 4 mps 747 mmHg 65%
18:00 +27°C° 0.2 mm 4 mps 747 mmHg 71%
19:00 +26°C° 0.2 mm 3 mps 746 mmHg 76%
20:00 +25°C° 0.2 mm 2 mps 746 mmHg 81%
21:00 +24°C° 0 mm 2 mps 746 mmHg 84%
22:00 +22°C° 0 mm 3 mps 746 mmHg 87%
23:00 +21°C° 0 mm 3 mps 746 mmHg 90%

Day after tomorrow, 22 June, Tuesday

Time Temperature Precipitation Wind Pressure Humidity
00:00 +21°C° 0 mm 3 mps 746 mmHg 92%
01:00 +20°C° 0 mm 3 mps 746 mmHg 94%
02:00 +20°C° 0 mm 3 mps 746 mmHg 96%
03:00 +20°C° 0 mm 2 mps 746 mmHg 96%
04:00 +20°C° 0 mm 2 mps 746 mmHg 96%
05:00 +20°C° 0 mm 2 mps 746 mmHg 96%
06:00 +21°C° 0 mm 3 mps 746 mmHg 90%
07:00 +24°C° 0 mm 3 mps 747 mmHg 85%
08:00 +25°C° 0 mm 3 mps 747 mmHg 80%
09:00 +27°C° 0 mm 4 mps 747 mmHg 74%
10:00 +28°C° 0 mm 4 mps 747 mmHg 69%
11:00 +29°C° 0 mm 4 mps 747 mmHg 63%
12:00 +29°C° 0.2 mm 4 mps 747 mmHg 61%
13:00 +30°C° 0.2 mm 4 mps 747 mmHg 59%
14:00 +30°C° 0.2 mm 4 mps 747 mmHg 57%
15:00 +30°C° 0.1 mm 3 mps 747 mmHg 60%
16:00 +30°C° 0.1 mm 3 mps 747 mmHg 62%
17:00 +30°C° 0.1 mm 3 mps 747 mmHg 64%
18:00 +29°C° 0.2 mm 2 mps 747 mmHg 69%
19:00 +28°C° 0.2 mm 1 mps 747 mmHg 73%
20:00 +26°C° 0.2 mm 1 mps 747 mmHg 77%
21:00 +25°C° 0.1 mm 1 mps 747 mmHg 80%
22:00 +25°C° 0.1 mm 1 mps 747 mmHg 83%
23:00 +24°C° 0.1 mm 1 mps 747 mmHg 86%

23 June, Wednesday

Time Temperature Precipitation Wind Pressure Humidity
00:00 +23°C° 0.2 mm 2 mps 747 mmHg 87%
01:00 +23°C° 0.2 mm 2 mps 747 mmHg 89%
02:00 +23°C° 0.2 mm 2 mps 747 mmHg 90%
03:00 +23°C° 0.1 mm 2 mps 747 mmHg 90%
04:00 +23°C° 0.1 mm 2 mps 747 mmHg 90%
05:00 +23°C° 0.1 mm 2 mps 747 mmHg 90%
06:00 +24°C° 0 mm 3 mps 748 mmHg 88%
07:00 +24°C° 0 mm 3 mps 748 mmHg 86%
08:00 +25°C° 0 mm 3 mps 748 mmHg 84%
09:00 +27°C° 0.3 mm 3 mps 748 mmHg 77%
10:00 +29°C° 0.3 mm 4 mps 748 mmHg 70%
11:00 +30°C° 0.3 mm 4 mps 748 mmHg 64%
12:00 +32°C° 0.2 mm 4 mps 748 mmHg 61%
13:00 +31°C° 0.2 mm 3 mps 748 mmHg 59%
14:00 +33°C° 0.2 mm 3 mps 748 mmHg 57%
15:00 +31°C° 0.3 mm 3 mps 748 mmHg 59%
16:00 +31°C° 0.3 mm 3 mps 748 mmHg 62%
17:00 +31°C° 0.3 mm 3 mps 748 mmHg 64%
18:00 +29°C° 0.1 mm 2 mps 748 mmHg 69%
19:00 +28°C° 0.1 mm 2 mps 748 mmHg 74%
20:00 +27°C° 0.1 mm 1 mps 748 mmHg 79%
21:00 +26°C° 0 mm 1 mps 749 mmHg 81%
22:00 +25°C° 0 mm 2 mps 749 mmHg 84%
23:00 +24°C° 0 mm 2 mps 749 mmHg 86%

24 June, Thursday

Time Temperature Precipitation Wind Pressure Humidity
00:00 +23°C° 0.4 mm 1 mps 749 mmHg 88%
01:00 +23°C° 0.4 mm 1 mps 749 mmHg 89%
02:00 +23°C° 0.4 mm 1 mps 749 mmHg 91%
03:00 +23°C° 0 mm 1 mps 749 mmHg 91%
04:00 +23°C° 0 mm 1 mps 749 mmHg 91%
05:00 +23°C° 0 mm 2 mps 749 mmHg 92%
06:00 +24°C° 0 mm 2 mps 749 mmHg 88%
07:00 +25°C° 0 mm 2 mps 749 mmHg 84%
08:00 +27°C° 0 mm 2 mps 749 mmHg 81%
09:00 +28°C° 0.1 mm 2 mps 749 mmHg 76%
10:00 +29°C° 0.1 mm 2 mps 749 mmHg 71%
11:00 +30°C° 0.1 mm 2 mps 749 mmHg 66%
12:00 +31°C° 0.5 mm 2 mps 749 mmHg 66%
13:00 +31°C° 0.5 mm 3 mps 749 mmHg 66%
14:00 +31°C° 0.5 mm 3 mps 749 mmHg 67%
15:00 +30°C° 0.7 mm 3 mps 748 mmHg 71%
16:00 +29°C° 0.7 mm 2 mps 748 mmHg 75%
17:00 +29°C° 0.7 mm 2 mps 748 mmHg 79%
18:00 +28°C° 0.4 mm 2 mps 748 mmHg 80%
19:00 +27°C° 0.4 mm 1 mps 748 mmHg 81%
20:00 +26°C° 0.4 mm 1 mps 747 mmHg 82%
21:00 +25°C° 0.7 mm 1 mps 747 mmHg 85%
22:00 +24°C° 0.7 mm 1 mps 748 mmHg 88%
23:00 +23°C° 0.7 mm 1 mps 748 mmHg 91%

25 June, Friday

Time Temperature Precipitation Wind Pressure Humidity
00:00 +22°C° 1.1 mm 1 mps 748 mmHg 93%
01:00 +21°C° 1.1 mm 2 mps 747 mmHg 94%
02:00 +20°C° 1.1 mm 2 mps 747 mmHg 96%
03:00 +20°C° 1 mm 2 mps 747 mmHg 97%
04:00 +21°C° 1 mm 1 mps 747 mmHg 97%
05:00 +21°C° 1 mm 1 mps 747 mmHg 97%
06:00 +20°C° 0.3 mm 2 mps 747 mmHg 96%
07:00 +21°C° 0.3 mm 2 mps 747 mmHg 94%
08:00 +21°C° 0.3 mm 2 mps 747 mmHg 92%
09:00 +23°C° 0.6 mm 2 mps 748 mmHg 91%
10:00 +23°C° 0.6 mm 2 mps 748 mmHg 90%
11:00 +23°C° 0.6 mm 2 mps 748 mmHg 89%
12:00 +24°C° 0.1 mm 2 mps 748 mmHg 85%
13:00 +25°C° 0.1 mm 2 mps 748 mmHg 82%
14:00 +25°C° 0.1 mm 2 mps 748 mmHg 78%
15:00 +26°C° 0 mm 2 mps 748 mmHg 76%
16:00 +26°C° 0 mm 2 mps 748 mmHg 74%
17:00 +26°C° 0 mm 1 mps 747 mmHg 72%
18:00 +26°C° 0 mm 1 mps 747 mmHg 75%
19:00 +25°C° 0 mm 1 mps 747 mmHg 79%
20:00 +24°C° 0 mm 1 mps 747 mmHg 83%
21:00 +23°C° 0 mm 1 mps 747 mmHg 86%
22:00 +21°C° 0 mm 2 mps 747 mmHg 89%
23:00 +19°C° 0 mm 2 mps 747 mmHg 92%
Show more